Weather History for New Philadelphia, OH

Change the Weather History Date:

Sunday, November 10, 2013

  Actual Average Record
Temperature  
Mean Temperature 40 °F 45 °F  
Max Temperature 52 °F 55 °F 78 °F (1975)
Min Temperature 28 °F 35 °F 13 °F (1991)
Degree Days  
Heating Degree Days 25 20  
Month to date heating degree days 186 186  
Since 1 July heating degree days 636 685  
Cooling Degree Days 0 0  
Month to date cooling degree days 0 0  
Year to date cooling degree days 755 697  
Moisture  
Dew Point 29 °F    
Average Humidity 62    
Maximum Humidity 78    
Minimum Humidity 45    
Precipitation  
Precipitation 0.00 in 0.08 in 1.45 in (1962)
Month to date precipitation 1.27 1.00  
Year to date precipitation 29.28 33.96  
Sea Level Pressure  
Sea Level Pressure 30.18 in    
Wind  
Wind Speed 7 mph (West)    
Max Wind Speed 20 mph    
Max Gust Speed 30 mph    
Visibility 10 miles    
Events      
T = Trace of Precipitation, MM = Missing Value Source: NWS Daily Summary

Daily Weather History Graph

Daily Weather History Graph

Search for Another Location

Airport:

Trip Planner

Search our weather history database for the weather conditions in past years. The results will help you decide how hot, cold, wet, or windy it might be!

Date:

Astronomy

Nov. 10, 2013 Rise Set
Actual Time 7:06 AM EST 5:12 PM EST
Civil Twilight 6:37 AM EST 5:41 PM EST
Nautical Twilight 6:04 AM EST 6:14 PM EST
Astronomical Twilight 5:32 AM EST 6:46 PM EST
Moon 1:18 PM EST (11/10) No Moon Set
Length of Visible Light 11h 03m
Length of Day
10h 06m
First Quarter, 55% of the Moon is Illuminated
Nov 10
First Quarter
Nov 17
Full
Nov 25
Last Quarter
Dec 2
New
Dec 9
First Quarter

Hourly Weather History & Observations

Time (EST) Temp. Windchill Dew Point Humidity Pressure Visibility Wind Dir Wind Speed Gust Speed Precip Events Conditions
12:53 AM 51.1 °F - 34.0 °F 52% 30.01 in 10.0 mi WSW 5.8 mph - N/A   Clear
1:53 AM 50.0 °F - 35.1 °F 57% 30.01 in 10.0 mi Variable 5.8 mph - N/A   Clear
2:53 AM 48.0 °F - 35.1 °F 61% 30.02 in 10.0 mi WSW 6.9 mph - N/A   Clear
3:53 AM 46.9 °F - 35.1 °F 63% 30.02 in 10.0 mi WSW 8.1 mph - N/A   Clear
4:53 AM 46.0 °F 43.1 °F 35.1 °F 66% 30.02 in 10.0 mi WSW 5.8 mph - N/A   Clear
5:53 AM 45.0 °F 40.1 °F 35.1 °F 68% 30.04 in 10.0 mi WSW 9.2 mph - N/A   Partly Cloudy
6:53 AM 45.0 °F 40.1 °F 34.0 °F 65% 30.05 in 10.0 mi West 9.2 mph 17.3 mph N/A   Scattered Clouds
7:53 AM 45.0 °F 39.7 °F 30.9 °F 58% 30.09 in 10.0 mi West 10.4 mph 18.4 mph N/A   Overcast
8:53 AM 44.1 °F 39.0 °F 28.9 °F 55% 30.13 in 10.0 mi WNW 9.2 mph 17.3 mph N/A   Overcast
9:53 AM 43.0 °F 35.7 °F 27.0 °F 53% 30.16 in 10.0 mi West 15.0 mph 25.3 mph N/A   Overcast
10:53 AM 45.0 °F 39.7 °F 26.1 °F 48% 30.18 in 10.0 mi WNW 10.4 mph 20.7 mph N/A   Overcast
11:53 AM 44.1 °F 36.8 °F 25.0 °F 47% 30.21 in 10.0 mi WNW 16.1 mph 24.2 mph N/A   Overcast
12:53 PM 44.1 °F 37.7 °F 26.1 °F 49% 30.22 in 10.0 mi West 12.7 mph 21.9 mph N/A   Overcast
1:53 PM 45.0 °F 39.3 °F 27.0 °F 49% 30.22 in 10.0 mi WNW 11.5 mph - N/A   Overcast
2:53 PM 45.0 °F 40.1 °F 27.0 °F 49% 30.24 in 10.0 mi West 9.2 mph 18.4 mph N/A   Overcast
3:53 PM 44.1 °F 37.1 °F 27.0 °F 51% 30.26 in 10.0 mi West 15.0 mph 21.9 mph N/A   Overcast
4:53 PM 44.1 °F 40.1 °F 27.0 °F 51% 30.28 in 10.0 mi WNW 6.9 mph - N/A   Overcast
5:53 PM 43.0 °F 38.8 °F 28.0 °F 56% 30.30 in 10.0 mi WNW 6.9 mph - N/A   Overcast
6:53 PM 41.0 °F - 27.0 °F 57% 30.31 in 10.0 mi Calm Calm - N/A   Clear
7:53 PM 35.1 °F - 27.0 °F 72% 30.32 in 10.0 mi Calm Calm - N/A   Clear
8:53 PM 33.1 °F - 27.0 °F 78% 30.33 in 10.0 mi Calm Calm - N/A   Clear
9:53 PM 32.0 °F - 26.1 °F 79% 30.33 in 10.0 mi Calm Calm - N/A   Clear
10:53 PM 30.0 °F - 25.0 °F 82% 30.33 in 10.0 mi Calm Calm - N/A   Clear
11:53 PM 28.0 °F - 24.1 °F 85% 30.33 in 10.0 mi Calm Calm - N/A   Clear